FW7253 Weather Reports


Display with metric or nautical units.
time (UTC)temp
F
wind
direction
speed
MPH
gust
MPH
rain 1hr
in
rain 24hr
in
rain mn
in
humidity
%
barometer
mb
20260902163534 65 221 7.0 11.0 0.00 0.00 0.00 45 1008.0
20260902163052 66 231 3.0 9.0 0.00 0.00 0.00 45 1008.0
20260902162533 66 255 5.0 10.0 0.00 0.00 0.00 45 1007.9
20260902162034 66 243 5.0 12.0 0.00 0.00 0.00 43 1008.0
20260902161550 66 229 5.0 12.0 0.00 0.00 0.00 44 1007.9
20260902161031 66 228 6.0 12.0 0.00 0.00 0.00 43 1007.9
20260902160531 67 293 3.0 11.0 0.00 0.00 0.00 43 1007.9
20260902160047 67 259 5.0 11.0 0.00 0.00 0.00 42 1008.0
20260902155535 67 297 4.0 11.0 0.00 0.00 0.00 43 1008.0
20260902155032 67 300 5.0 11.0 0.00 0.00 0.00 43 1008.0
20260902154553 66 311 4.0 11.0 0.00 0.00 0.00 42 1007.9
20260902154034 67 289 6.0 12.0 0.00 0.00 0.00 42 1008.1
20260902153531 67 357 6.0 13.0 0.00 0.00 0.00 43 1007.9
20260902153059 67 245 8.0 15.0 0.00 0.00 0.00 42 1008.0
20260902152531 67 267 8.0 15.0 0.00 0.00 0.00 43 1008.0
20260902152032 67 269 8.0 15.0 0.00 0.00 0.00 42 1007.9
20260902151545 67 241 10.0 15.0 0.00 0.00 0.00 41 1007.9
20260902151031 68 274 4.0 19.0 0.00 0.00 0.00 42 1007.9
20260902150534 68 250 7.0 19.0 0.00 0.00 0.00 42 1008.0
20260902150055 68 237 10.0 16.0 0.00 0.00 0.00 41 1008.1
20260902145532 68 219 9.0 13.0 0.00 0.00 0.00 44 1008.0
20260902145031 68 257 6.0 14.0 0.00 0.00 0.00 43 1008.1
20260902144551 66 319 7.0 15.0 0.00 0.00 0.00 43 1008.1
20260902144031 66 214 7.0 15.0 0.00 0.00 0.00 44 1008.1
20260902143533 67 237 8.0 15.0 0.00 0.00 0.00 44 1008.1
20260902143048 67 280 6.0 17.0 0.00 0.00 0.00 43 1008.2
20260902142533 66 238 7.0 17.0 0.00 0.00 0.00 45 1008.2
20260902142032 67 246 9.0 16.0 0.00 0.00 0.00 44 1008.2
20260902141544 68 212 8.0 14.0 0.00 0.00 0.00 43 1008.1
20260902141031 67 245 6.0 15.0 0.00 0.00 0.00 46 1008.2
20260902140535 68 322 7.0 15.0 0.00 0.00 0.00 45 1008.3
20260902140053 68 291 6.0 13.0 0.00 0.00 0.00 45 1008.3
20260902135534 67 238 6.0 13.0 0.00 0.00 0.00 47 1008.2
20260902135034 67 288 5.0 10.0 0.00 0.00 0.00 48 1008.2
20260902134550 66 297 5.0 12.0 0.00 0.00 0.00 50 1008.4
20260902134032 65 251 5.0 16.0 0.00 0.00 0.00 48 1008.3
20260902133532 66 262 8.0 16.0 0.00 0.00 0.00 47 1008.5
20260902133101 67 247 7.0 16.0 0.00 0.00 0.00 47 1008.5
20260902132534 67 201 10.0 16.0 0.00 0.00 0.00 46 1008.4
20260902132032 67 289 10.0 16.0 0.00 0.00 0.00 47 1008.7
20260902131553 67 228 8.0 15.0 0.00 0.00 0.00 49 1008.6
20260902131033 67 233 6.0 18.0 0.00 0.00 0.00 48 1008.5
20260902130536 67 239 11.0 18.0 0.00 0.00 0.00 50 1008.7
20260902130049 66 258 5.0 17.0 0.00 0.00 0.00 51 1008.7
20260902125532 66 297 6.0 14.0 0.00 0.00 0.00 50 1008.5
20260902125032 67 239 9.0 15.0 0.00 0.00 0.00 52 1008.6
20260902124547 66 251 6.0 15.0 0.00 0.00 0.00 51 1008.7
20260902124034 66 236 9.0 15.0 0.00 0.00 0.00 52 1008.7
20260902123531 66 243 9.0 17.0 0.00 0.00 0.00 53 1008.6
20260902123056 66 236 11.0 17.0 0.00 0.00 0.00 51 1008.8
20260902122531 67 235 9.0 17.0 0.00 0.00 0.00 51 1008.5
20260902122033 66 244 11.0 17.0 0.00 0.00 0.00 51 1008.6
20260902121549 68 238 7.0 16.0 0.00 0.00 0.00 50 1008.6
20260902121034 65 250 6.0 12.0 0.00 0.00 0.00 54 1008.7
20260902120532 65 250 5.0 13.0 0.00 0.00 0.00 52 1008.7
20260902120053 66 240 6.0 15.0 0.00 0.00 0.00 50 1008.6
20260902115532 67 357 7.0 16.0 0.00 0.00 0.00 52 1008.6
20260902115034 66 243 9.0 22.0 0.00 0.00 0.00 49 1008.6
20260902114553 67 257 13.0 22.0 0.00 0.00 0.00 50 1008.5
20260902114034 68 237 8.0 16.0 0.00 0.00 0.00 49 1008.6
20260902113534 67 236 11.0 16.0 0.00 0.00 0.00 51 1008.7
20260902113053 66 264 6.0 18.0 0.00 0.00 0.00 52 1008.6
20260902112534 66 323 11.0 18.0 0.00 0.00 0.00 51 1008.7
20260902112031 67 229 8.0 15.0 0.00 0.00 0.00 52 1008.7
20260902111547 66 257 7.0 15.0 0.00 0.00 0.00 53 1008.8
20260902111032 65 218 6.0 20.0 0.00 0.00 0.00 53 1008.9
20260902110534 65 250 12.0 20.0 0.00 0.00 0.00 54 1008.9
20260902110050 65 218 6.0 14.0 0.00 0.00 0.00 54 1008.8
20260902105535 64 255 6.0 12.0 0.00 0.00 0.00 54 1008.9
20260902105034 64 283 4.0 15.0 0.00 0.00 0.00 55 1009.0
20260902104610 64 304 7.0 19.0 0.00 0.00 0.00 54 1009.0
20260902104036 65 252 10.0 20.0 0.00 0.00 0.00 53 1009.0
20260902103532 65 231 10.0 20.0 0.00 0.00 0.00 53 1008.9
20260902103106 65 225 8.0 20.0 0.00 0.00 0.00 54 1008.9
20260902102534 64 256 9.0 15.0 0.00 0.00 0.00 55 1009.0
20260902102031 64 248 6.0 17.0 0.00 0.00 0.00 55 1009.0
20260902101554 63 255 9.0 17.0 0.00 0.00 0.00 54 1009.0
20260902101032 63 250 9.0 15.0 0.00 0.00 0.00 56 1009.0
20260902100532 64 224 7.0 15.0 0.00 0.00 0.00 55 1009.0
20260902100044 63 308 9.0 15.0 0.00 0.00 0.00 54 1009.0
20260902095534 64 294 9.0 19.0 0.00 0.00 0.00 54 1009.0
20260902095032 63 232 10.0 19.0 0.00 0.00 0.00 55 1009.1
20260902094552 63 252 8.0 15.0 0.00 0.00 0.00 57 1009.0
20260902094031 63 323 5.0 17.0 0.00 0.00 0.00 55 1009.1
20260902093534 63 236 10.0 17.0 0.00 0.00 0.00 54 1009.0
20260902093047 63 224 10.0 17.0 0.00 0.00 0.00 55 1009.1
20260902092532 63 221 6.0 15.0 0.00 0.00 0.00 55 1009.1
20260902092034 63 268 5.0 17.0 0.00 0.00 0.00 57 1009.0
20260902091547 62 289 7.0 17.0 0.00 0.00 0.00 58 1009.1
20260902091035 63 250 9.0 14.0 0.00 0.00 0.00 56 1009.2
20260902090535 63 214 4.0 12.0 0.00 0.00 0.00 59 1009.2
20260902090051 62 206 6.0 11.0 0.00 0.00 0.00 58 1009.2
20260902085534 62 263 7.0 12.0 0.00 0.00 0.00 59 1009.2
20260902085034 61 219 4.0 18.0 0.00 0.00 0.00 60 1009.2
20260902084554 61 258 9.0 18.0 0.00 0.00 0.00 57 1009.3
20260902084032 61 219 7.0 13.0 0.00 0.00 0.00 58 1009.2
20260902083533 61 292 7.0 13.0 0.00 0.00 0.00 58 1009.1
20260902083051 61 278 6.0 11.0 0.00 0.00 0.00 58 1009.1
20260902082531 61 236 5.0 10.0 0.00 0.00 0.00 61 1009.1
20260902082031 60 252 6.0 10.0 0.00 0.00 0.00 62 1009.1
20260902081552 60 218 6.0 12.0 0.00 0.00 0.00 60 1009.1
20260902081031 60 212 6.0 12.0 0.00 0.00 0.00 62 1009.0
20260902080531 60 244 8.0 12.0 0.00 0.00 0.00 61 1009.1
20260902080050 59 229 5.0 10.0 0.00 0.00 0.00 65 1009.1
20260902075531 59 260 6.0 10.0 0.00 0.00 0.00 66 1009.1
20260902075032 59 303 4.0 12.0 0.00 0.00 0.00 65 1009.0
20260902074547 58 278 6.0 12.0 0.00 0.00 0.00 66 1009.0
20260902074034 58 177 5.0 10.0 0.00 0.00 0.00 68 1008.9
20260902073534 58 207 6.0 9.0 0.00 0.00 0.00 68 1008.9
20260902073053 57 239 5.0 9.0 0.00 0.00 0.00 71 1008.9
20260902072531 57 214 5.0 9.0 0.00 0.00 0.00 72 1008.8
20260902072059 57 214 5.0 11.0 0.00 0.00 0.00 71 1008.8
20260902071552 57 214 6.0 11.0 0.00 0.00 0.00 73 1008.8
20260902071031 56 214 5.0 9.0 0.00 0.00 0.00 74 1008.8
20260902070534 56 213 5.0 9.0 0.00 0.00 0.00 75 1008.8
20260902070050 56 221 6.0 9.0 0.00 0.00 0.00 77 1008.7
20260902065534 55 229 5.0 9.0 0.00 0.00 0.00 78 1008.8
20260902065035 55 230 5.0 12.0 0.00 0.00 0.00 79 1008.7
20260902064547 55 257 6.0 12.0 0.00 0.00 0.00 80 1008.6
20260902064034 55 241 7.0 12.0 0.00 0.00 0.00 79 1008.7
20260902063532 55 216 6.0 12.0 0.00 0.00 0.00 80 1008.5
20260902063106 54 227 5.0 8.0 0.00 0.00 0.00 82 1008.4
20260902062536 53 234 4.0 8.0 0.00 0.00 0.00 84 1008.4
20260902062034 53 215 4.0 8.0 0.00 0.00 0.00 86 1008.5
20260902061040 52 238 2.0 6.0 0.00 0.00 0.00 88 1008.4
20260902060534 52 207 1.0 6.0 0.00 0.00 0.00 89 1008.3
20260902060058 51 220 2.0 4.0 0.00 0.00 0.00 90 1008.3
20260902055533 51 199 1.0 3.0 0.00 0.00 0.00 91 1008.1
20260902055033 51 133 0.0 6.0 0.00 0.00 0.00 92 1008.0
20260902054555 51 271 1.0 7.0 0.00 0.00 0.00 93 1008.2
20260902054032 50 139 4.0 7.0 0.00 0.00 0.00 93 1008.0
20260902053536 50 0 0.0 4.0 0.00 0.00 0.00 93 1007.9
20260902053047 49 0 0.0 4.0 0.00 0.00 0.00 93 1007.9
20260902052532 49 109 0.0 1.0 0.00 0.00 0.00 93 1007.9
20260902052031 49 0 0.0 0.0 0.00 0.00 0.00 92 1007.9
20260902051557 49 0 0.0 0.0 0.00 0.00 0.00 92 1008.1
20260902051031 49 0 0.0 2.0 0.00 0.00 0.00 92 1008.0
20260902050532 49 0 0.0 2.0 0.00 0.00 0.00 92 1008.0
20260902050046 49 143 0.0 1.0 0.00 0.00 0.00 92 1008.1
20260902045531 49 0 0.0 3.0 0.00 0.00 0.00 92 1008.0
20260902045034 49 162 0.0 3.0 0.00 0.00 0.00 92 1008.1
20260902044606 49 207 1.0 3.0 0.00 0.00 0.00 91 1007.9
20260902044032 50 0 0.0 3.0 0.00 0.00 0.00 91 1008.0
20260902043530 50 0 0.0 3.0 0.00 0.00 0.00 92 1007.9
20260902043049 50 24 1.0 3.0 0.00 0.00 0.00 92 1008.0
20260902042532 49 0 1.0 2.0 0.00 0.00 0.00 91 1007.9
20260902042034 49 0 0.0 2.0 0.00 0.00 0.00 91 1007.8
20260902041557 50 79 1.0 2.0 0.00 0.00 0.00 91 1007.9
20260902041031 49 0 0.0 2.0 0.00 0.00 0.00 91 1007.8
20260902040531 50 94 1.0 2.0 0.00 0.00 0.00 91 1007.8
20260902040054 50 87 0.0 2.0 0.00 0.00 0.00 90 1007.8
20260902035531 50 104 0.0 2.0 0.00 0.00 0.00 90 1007.8
20260902035035 50 0 0.0 0.0 0.00 0.00 0.00 90 1007.8
20260902034552 50 0 0.0 0.0 0.00 0.00 0.00 90 1007.9
20260902034034 50 0 0.0 0.0 0.00 0.00 0.00 90 1007.9
20260902033531 50 0 0.0 0.0 0.00 0.00 0.00 89 1007.9
20260902033045 51 0 0.0 0.0 0.00 0.00 0.00 89 1007.8
20260902032534 51 0 0.0 0.0 0.00 0.00 0.00 89 1007.8
20260902032030 51 0 0.0 2.0 0.00 0.00 0.00 89 1007.9
20260902031601 51 0 0.0 5.0 0.00 0.00 0.00 89 1007.8
20260902031035 51 169 1.0 5.0 0.00 0.00 0.00 89 1007.8
20260902030537 51 0 0.0 2.0 0.00 0.00 0.00 89 1007.8
20260902030057 51 0 0.0 2.0 0.00 0.00 0.00 89 1007.8
20260902025535 51 0 0.0 2.0 0.00 0.00 0.00 89 1007.8
20260902025034 51 0 0.0 2.0 0.00 0.00 0.00 89 1007.7
20260902024557 51 0 0.0 2.0 0.00 0.00 0.00 89 1007.9
20260902024033 52 0 0.0 2.0 0.00 0.00 0.00 89 1007.8
20260902023536 51 0 0.0 2.0 0.00 0.00 0.00 89 1007.9
20260902023047 52 109 0.0 1.0 0.00 0.00 0.00 88 1007.8
20260902022532 52 0 0.0 1.0 0.00 0.00 0.00 88 1007.8
20260902022033 52 0 0.0 2.0 0.00 0.00 0.00 87 1008.0
20260902021553 53 0 0.0 3.0 0.00 0.00 0.00 87 1007.9
20260902021034 53 82 0.0 3.0 0.00 0.00 0.00 87 1007.8
20260902020533 53 102 2.0 3.0 0.00 0.00 0.00 87 1007.9
20260902020058 53 125 1.0 3.0 0.00 0.00 0.00 86 1008.0
20260902015533 53 134 1.0 3.0 0.00 0.00 0.00 85 1007.9
20260902015036 54 185 1.0 5.0 0.00 0.00 0.00 85 1007.9
20260902014546 54 155 0.0 5.0 0.00 0.00 0.00 86 1008.0
20260902014035 54 209 3.0 5.0 0.00 0.00 0.00 86 1008.1
20260902013533 53 256 3.0 4.0 0.00 0.00 0.00 87 1008.1
20260902013047 53 187 2.0 5.0 0.00 0.00 0.00 87 1008.2
20260902012534 53 0 0.0 5.0 0.00 0.00 0.00 88 1008.2
20260902012033 53 178 3.0 6.0 0.00 0.00 0.00 88 1008.1
20260902011551 53 216 3.0 6.0 0.00 0.00 0.00 87 1008.0
20260902011037 54 207 3.0 6.0 0.00 0.00 0.00 87 1008.1
20260902010530 55 184 3.0 6.0 0.00 0.00 0.00 88 1008.1
20260902010047 55 224 1.0 4.0 0.00 0.00 0.00 89 1008.3
20260902005531 55 217 1.0 3.0 0.00 0.00 0.00 89 1008.1
20260902005031 55 143 0.0 3.0 0.00 0.00 0.00 90 1008.3
20260902004556 54 141 2.0 4.0 0.00 0.00 0.00 90 1008.2
20260902004032 55 206 2.0 6.0 0.00 0.00 0.00 90 1008.3
20260902003530 55 227 4.0 6.0 0.00 0.00 0.00 90 1008.2
20260902003053 55 224 2.0 6.0 0.00 0.00 0.00 91 1008.3
20260902002533 56 206 3.0 7.0 0.00 0.00 0.00 91 1008.3
20260902002030 55 178 3.0 7.0 0.00 0.00 0.00 92 1008.3
20260902001551 56 165 3.0 7.0 0.00 0.00 0.00 92 1008.3
20260902001030 56 184 2.0 5.0 0.00 0.00 0.00 93 1008.4
20260902000530 56 212 2.0 5.0 0.00 0.00 0.00 93 1008.4
20260902000044 55 146 1.0 3.0 0.00 0.00 0.00 94 1008.4
20260901235532 55 0 0.0 3.0 0.00 0.00 0.00 94 1008.5
20260901235035 55 134 1.0 3.0 0.00 0.00 0.00 94 1008.4
20260901234547 55 0 0.0 4.0 0.00 0.00 0.00 94 1008.3
20260901234033 54 86 1.0 4.0 0.00 0.00 0.00 94 1008.3
20260901233531 54 105 1.0 4.0 0.00 0.00 0.00 94 1008.4
20260901233049 54 0 0.0 1.0 0.00 0.00 0.00 94 1008.2
20260901232531 54 0 0.0 1.0 0.00 0.00 0.00 94 1008.3
20260901232034 54 0 0.0 1.0 0.00 0.00 0.00 94 1008.5
20260901231550 54 110 0.0 1.0 0.00 0.00 0.00 94 1008.4
20260901231030 54 0 0.0 0.0 0.00 0.00 0.00 94 1008.4
20260901230534 54 0 0.0 2.0 0.00 0.00 0.00 94 1008.3
20260901230107 54 0 0.0 2.0 0.00 0.00 0.00 94 1008.1
20260901225533 54 109 0.0 0.0 0.00 0.00 0.00 94 1008.1
20260901225031 54 0 0.0 1.0 0.00 0.00 0.00 94 1008.1
20260901224550 54 0 0.0 3.0 0.00 0.00 0.00 94 1008.1
20260901224031 54 0 0.0 3.0 0.00 0.00 0.00 94 1008.1
20260901223534 54 98 1.0 3.0 0.00 0.00 0.00 93 1008.2
20260901223055 54 0 1.0 2.0 0.00 0.00 0.00 93 1008.2
20260901222536 54 0 0.0 0.0 0.00 0.00 0.00 93 1008.2
20260901222036 54 0 0.0 0.0 0.00 0.00 0.00 93 1008.2
20260901221607 55 0 0.0 0.0 0.00 0.00 0.00 93 1008.1
20260901221033 55 0 0.0 1.0 0.00 0.00 0.00 93 1008.2
20260901220532 55 0 0.0 2.0 0.00 0.00 0.00 93 1008.2
20260901220048 55 0 0.0 2.0 0.00 0.00 0.00 93 1008.2
20260901215535 55 104 1.0 2.0 0.00 0.00 0.00 93 1008.1
20260901215031 55 110 1.0 2.0 0.00 0.00 0.00 93 1008.1
20260901214546 55 112 1.0 2.0 0.00 0.00 0.00 93 1008.2
20260901214033 55 106 0.0 3.0 0.00 0.00 0.00 93 1008.1
20260901213537 56 140 0.0 3.0 0.00 0.00 0.00 93 1008.1
20260901213056 56 143 0.0 2.0 0.00 0.00 0.00 93 1008.0
20260901212533 56 117 0.0 2.0 0.00 0.00 0.00 93 1008.0
20260901212032 56 160 0.0 2.0 0.00 0.00 0.00 93 1008.1
20260901211551 55 0 0.0 2.0 0.00 0.00 0.00 93 1008.1
20260901211032 55 138 0.0 2.0 0.00 0.00 0.00 93 1008.2
20260901210534 56 141 0.0 4.0 0.00 0.00 0.00 93 1008.1
20260901210047 56 0 0.0 4.0 0.00 0.00 0.00 93 1008.2
20260901205532 55 123 2.0 3.0 0.00 0.00 0.00 92 1008.3
20260901205034 55 111 2.0 3.0 0.00 0.00 0.00 92 1008.3
20260901204544 56 124 2.0 3.0 0.00 0.00 0.00 92 1008.3
20260901204030 56 116 1.0 3.0 0.00 0.00 0.00 92 1008.5
20260901203533 56 105 1.0 3.0 0.00 0.00 0.00 92 1008.4
20260901203056 56 0 0.0 0.0 0.00 0.00 0.00 92 1008.5
20260901202533 56 0 0.0 0.0 0.00 0.00 0.00 91 1008.4
20260901202033 56 0 0.0 0.0 0.00 0.00 0.00 91 1008.6
20260901201550 56 0 0.0 0.0 0.00 0.00 0.00 91 1008.4
20260901201037 56 0 0.0 0.0 0.00 0.00 0.00 91 1008.4
20260901200530 56 0 0.0 0.0 0.00 0.00 0.00 91 1008.4
20260901200045 56 0 0.0 0.0 0.00 0.00 0.00 91 1008.5
20260901195530 57 0 0.0 0.0 0.00 0.00 0.00 91 1008.5
20260901195031 57 0 0.0 1.0 0.00 0.00 0.00 90 1008.5
20260901194544 57 0 0.0 2.0 0.00 0.00 0.00 90 1008.3
20260901194034 57 0 0.0 2.0 0.00 0.00 0.00 90 1008.6
20260901193533 57 168 0.0 1.0 0.00 0.00 0.00 90 1008.5
20260901193047 57 0 0.0 2.0 0.00 0.00 0.00 90 1008.6
20260901192537 57 0 0.0 3.0 0.00 0.00 0.00 90 1008.5
20260901192030 57 174 0.0 3.0 0.00 0.00 0.00 90 1008.4
20260901191545 57 168 1.0 3.0 0.00 0.00 0.00 89 1008.5
20260901191033 57 221 1.0 2.0 0.00 0.00 0.00 89 1008.5
20260901190533 58 210 0.0 2.0 0.00 0.00 0.00 89 1008.5
20260901190049 58 0 0.0 2.0 0.00 0.00 0.00 88 1008.6
20260901185634 58 0 0.0 4.0 0.00 0.00 0.00 88 1008.5
20260901185033 59 0 0.0 4.0 0.00 0.00 0.00 88 1008.6
20260901184545 59 127 2.0 4.0 0.00 0.00 0.00 88 1008.5
20260901184033 59 141 1.0 4.0 0.00 0.00 0.00 88 1008.5
20260901183533 59 206 2.0 6.0 0.00 0.00 0.00 88 1008.5
20260901183109 59 195 1.0 6.0 0.00 0.00 0.00 87 1008.5
20260901182533 59 153 2.0 5.0 0.00 0.00 0.00 87 1008.6
20260901182034 60 184 1.0 4.0 0.00 0.00 0.00 87 1008.6
20260901181552 60 0 1.0 4.0 0.00 0.00 0.00 86 1008.5
20260901181034 60 151 1.0 4.0 0.00 0.00 0.00 86 1008.6
20260901180533 60 158 2.0 4.0 0.00 0.00 0.00 86 1008.7
20260901180050 61 148 2.0 4.0 0.00 0.00 0.00 85 1008.6
20260901175533 61 128 1.0 7.0 0.00 0.00 0.00 85 1008.6
20260901175032 61 0 3.0 7.0 0.00 0.00 0.00 84 1008.5
20260901174547 61 110 2.0 7.0 0.00 0.00 0.00 83 1008.5
20260901174033 62 156 2.0 6.0 0.00 0.00 0.00 83 1008.7
20260901173532 62 207 1.0 6.0 0.00 0.00 0.00 82 1008.7
20260901173124 63 163 3.0 8.0 0.00 0.00 0.00 81 1008.7
20260901172533 63 205 3.0 9.0 0.00 0.00 0.00 80 1008.7
20260901172033 64 219 3.0 9.0 0.00 0.00 0.00 79 1008.7
20260901171556 64 221 4.0 13.0 0.00 0.00 0.00 79 1008.7
20260901171034 64 212 7.0 13.0 0.00 0.00 0.00 78 1008.8
20260901170533 64 179 7.0 13.0 0.00 0.00 0.00 78 1008.8
20260901165532 64 115 3.0 7.0 0.00 0.00 0.00 79 1008.7
20260901165032 63 207 4.0 7.0 0.00 0.00 0.00 80 1008.7
20260901164557 63 148 2.0 6.0 0.00 0.00 0.00 80 1008.7
20260901164032 63 108 2.0 7.0 0.00 0.00 0.00 80 1008.8